Flight Track Log - Related Links

Times and Time Zones

All times are in EDT time to prevent confusion due to time zone crossing. See the SWA757 flight status page for this flight to view local times or setup timezone preferences in your user account.

Time Position Orientation Groundspeed Altitude Reporting Facility
EDT Latitude Longitude Course Direction KTS MPH feet Rate Location/Type
11:28PM 37.3833 -121.9500 141° Southeast 164 189 1,800  Level Northern Cal TRACON
11:29PM 37.4333 -121.9667 345° North 220 253 4,500 1,700 Climbing Northern Cal TRACON
11:30PM 37.4167 -121.9000 107° East 234 269 5,200 1,700 Climbing Northern Cal TRACON
11:31PM 37.3667 -121.8333 133° Southeast 289 333 7,900 3,000 Climbing Northern Cal TRACON
11:32PM 37.3372 -121.8036 141° Southeast 276 318 9,600 2,697 Climbing Oakland Center
11:33PM 37.2675 -121.7250 138° Southeast 338 389 11,900 2,803 Climbing Oakland Center
11:34PM 36.8971 -121.4179 141° Southeast  Level Estimated
11:34PM 37.1883 -121.6364 138° Southeast 378 435 15,300  Level Oakland Center
11:35PM 37.1036 -121.5439 139° Southeast 400 460 18,700 3,197 Climbing Oakland Center
11:36PM 37.0139 -121.4428 138° Southeast 417 480 21,800 2,754 Climbing Oakland Center
11:37PM 36.9233 -121.3433 139° Southeast 431 496 24,300 2,361 Climbing Oakland Center
11:38PM 36.8289 -121.2403 139° Southeast 450 518 26,600 2,164 Climbing Oakland Center
11:39PM 36.7231 -121.1283 140° Southeast 463 533 28,700 2,164 Climbing Oakland Center
11:40PM 36.6256 -121.0186 138° Southeast 472 543 31,000 2,311 Climbing Oakland Center
11:41PM 36.5272 -120.9144 140° Southeast 465 535 33,400 2,066 Climbing Oakland Center
11:42PM 36.4308 -120.8111 139° Southeast 460 529 35,200 1,736 Climbing Oakland Center
11:43PM 36.3361 -120.7047 138° Southeast 459 528 36,900 1,686 Climbing Oakland Center
11:44PM 36.2394 -120.6044 140° Southeast 456 525 38,600 1,033 Climbing Oakland Center
11:45PM 36.1456 -120.5047 139° Southeast 447 514 39,000 197 Climbing Oakland Center
11:46PM 36.0500 -120.3992 138° Southeast 456 525 39,000  Level Oakland Center
11:47PM 35.9564 -120.3031 140° Southeast 432 497 39,000  Level Oakland Center
11:48PM 35.8611 -120.2042 140° Southeast 442 509 39,000  Level Oakland Center
11:49PM 35.7678 -120.1042 139° Southeast 441 507 39,000  Level Oakland Center
11:50PM 35.6739 -120.0050 139° Southeast 441 507 39,000  Level Oakland Center
11:51PM 35.5736 -119.9142 144° Southeast 442 509 39,000  Level Oakland Center
11:52PM 35.4711 -119.8250 145° Southeast 445 512 39,000  Level Oakland Center
11:53PM 35.3686 -119.7372 145° Southeast 446 513 39,000  Level Oakland Center
11:54PM 35.3283 -119.7039 146° Southeast 446 513 39,000  Level Los Angeles Center
11:55PM 35.2056 -119.5975 145° Southeast 449 517 39,000  Level Los Angeles Center
11:56PM 35.1019 -119.5103 145° Southeast 451 519 39,000  Level Los Angeles Center
11:57PM 34.9989 -119.4219 145° Southeast 453 521 39,000  Level Los Angeles Center
11:58PM 34.8958 -119.3347 145° Southeast 450 518 39,000  Level Los Angeles Center
11:59PM 34.7922 -119.2456 145° Southeast 454 522 39,000  Level Los Angeles Center
12:00AM 34.6892 -119.1592 145° Southeast 452 520 39,000  Level Los Angeles Center
12:01AM 34.5781 -119.0675 146° Southeast 454 522 39,000  Level Los Angeles Center
12:02AM 34.4728 -118.9808 146° Southeast 458 527 39,000 -49 Level Los Angeles Center
12:03AM 34.3903 -118.9103 145° Southeast 456 525 38,900  Descending Los Angeles Center
12:04AM 34.2731 -118.7939 141° Southeast 456 525 39,000 49 Climbing Los Angeles Center
12:05AM 34.1972 -118.7117 138° Southeast 457 526 39,000  Level Los Angeles Center
12:06AM 34.0633 -118.5706 139° Southeast 456 525 39,000 -439 Level Los Angeles Center
12:07AM 33.9681 -118.4703 139° Southeast 454 522 38,100 -1,645 Descending Los Angeles Center
12:08AM 33.8792 -118.3622 135° Southeast 452 520 35,600 -2,780 Descending Los Angeles Center
12:09AM 33.7917 -118.2500 133° Southeast 453 521 32,400 -2,829 Descending Los Angeles Center
12:10AM 33.7017 -118.1344 133° Southeast 451 519 29,800 -2,049 Descending Los Angeles Center
12:11AM 33.6186 -118.0303 134° Southeast 433 498 28,200 -1,902 Descending Los Angeles Center
12:12AM 33.5386 -117.9294 134° Southeast 419 482 25,900 -2,146 Descending Los Angeles Center
12:13AM 33.4611 -117.8319 134° Southeast 407 468 23,800 -2,300 Descending Los Angeles Center
12:14AM 33.3833 -117.7333 133° Southeast 396 456 21,300 -2,370 Descending Southern California TRACON
12:15AM 33.3000 -117.6333 135° Southeast 384 442 19,100 -1,579 Descending Southern California TRACON
12:15AM 33.3094 -117.6431 319° Northwest 389 448 19,300 -2,100 Climbing Los Angeles Center
12:16AM 33.2333 -117.5500 134° Southeast 376 433 17,000 -2,400 Descending Southern California TRACON
12:17AM 33.1500 -117.4833 146° Southeast 365 420 15,100 -1,725 Descending Southern California TRACON
12:17AM 33.1244 -117.4578 140° Southeast 358 412 14,700 -1,050 Descending Los Angeles Center
12:18AM 33.0483 -117.3997 147° Southeast 330 380 13,700 -1,248 Descending Los Angeles Center
12:19AM 33.0000 -117.3667 150° Southeast 304 350 12,600 -1,140 Descending Southern California TRACON
12:20AM 32.9333 -117.3000 140° Southeast 278 320 11,800 -1,000 Descending Southern California TRACON
12:21AM 32.8667 -117.2500 148° Southeast 271 312 10,600 -1,129 Descending Southern California TRACON
12:21AM 32.8531 -117.2422 154° Southeast 271 312 10,200 -1,103 Descending Los Angeles Center
12:22AM 32.8219 -117.1678 116° Southeast 266 306 9,000 -1,069 Descending Los Angeles Center
12:23AM 32.8167 -117.1000 95° East 250 288 8,400 -1,097 Descending Southern California TRACON
12:24AM 32.8000 -117.0333 107° East 238 274 7,300 -700 Descending Southern California TRACON
12:25AM 32.7833 -116.9500 103° East 245 282 7,000 -143 Descending Southern California TRACON
12:26AM 32.7667 -116.8667 103° East 247 284 7,000  Level Southern California TRACON
12:27AM 32.7589 -116.8589 140° Southeast 245 282 7,000 -273 Level Los Angeles Center
12:28AM 32.7319 -116.7797 112° Southeast 219 252 6,600 -726 Descending Los Angeles Center
12:29AM 32.6767 -116.7939 192° South 209 241 5,500 -711 Descending Los Angeles Center
12:30AM 32.6569 -116.8647 252° West 193 222 5,000 -333 Descending Los Angeles Center
12:30AM 32.6667 -116.9000 288° West 190 219 5,000 -845 Level Southern California TRACON
12:31AM 32.6833 -116.9500 292° West 191 220 4,000 -1,050 Descending Southern California TRACON
12:32AM 32.6833 -117.0167 270° West 180 207 2,900 -942 Descending Southern California TRACON
12:33AM 32.7000 -117.0667 292° West 179 206 2,100 -800 Descending Southern California TRACON
12:34AM 32.7167 -117.1167 292° West 145 167 1,300 -724 Descending Southern California TRACON
12:35AM 32.7225 -117.1467 283° West 141 162 700 -589 Descending Los Angeles Center
12:36AM 32.7342 -117.1922 287° West 133 153 200 -492 Descending Los Angeles Center

Login

Don't have an account? Register now (free) for customized features, flight alerts, and more!